| time (UTC) | temp F | wind direction | speed MPH | gust MPH | rain 1hr in | rain 24hr in | rain mn in | humidity % | barometer mb |
| 20260504031804 | 43 | 255 | 1.0 | 2.0 | 0.00 | 0.00 | 0.00 | 79 | 1016.2 |
| 20260504030804 | 43 | 255 | 0.0 | 1.0 | 0.00 | 0.00 | 0.00 | 80 | 1016.1 |
| 20260504025805 | 44 | 255 | 0.0 | 2.0 | 0.00 | 0.00 | 0.00 | 76 | 1016.2 |
| 20260504022305 | 45 | 255 | 1.0 | 2.0 | 0.00 | 0.00 | 0.00 | 71 | 1016.0 |
| 20260504015806 | 47 | 255 | 0.0 | 2.0 | 0.00 | 0.00 | 0.00 | 68 | 1016.1 |
| 20260504013806 | 48 | 255 | 2.0 | 2.0 | 0.00 | 0.00 | 0.00 | 66 | 1016.1 |
| 20260504013305 | 48 | 255 | 0.0 | 0.0 | 0.00 | 0.00 | 0.00 | 65 | 1016.0 |
| 20260504011805 | 48 | 255 | 0.0 | 0.0 | 0.00 | 0.00 | 0.00 | 64 | 1015.9 |
| 20260504011305 | 49 | 255 | 0.0 | 0.0 | 0.00 | 0.00 | 0.00 | 64 | 1015.9 |
| 20260504010805 | 49 | 255 | 0.0 | 0.0 | 0.00 | 0.00 | 0.00 | 62 | 1015.8 |
| 20260504004805 | 50 | 255 | 0.0 | 0.0 | 0.00 | 0.00 | 0.00 | 60 | 1015.7 |
| 20260504004305 | 50 | 255 | 0.0 | 0.0 | 0.00 | 0.00 | 0.00 | 58 | 1015.6 |
| 20260504003306 | 52 | 255 | 0.0 | 0.0 | 0.00 | 0.00 | 0.00 | 55 | 1015.5 |
| 20260504002804 | 52 | 255 | 0.0 | 0.0 | 0.00 | 0.00 | 0.00 | 54 | 1015.5 |
| 20260504002304 | 52 | 255 | 0.0 | 0.0 | 0.00 | 0.00 | 0.00 | 54 | 1015.3 |
| 20260504001805 | 52 | 255 | 0.0 | 0.0 | 0.00 | 0.00 | 0.00 | 53 | 1015.3 |
| 20260504000806 | 54 | 255 | 0.0 | 3.0 | 0.00 | 0.00 | 0.00 | 53 | 1015.1 |
| 20260503235805 | 55 | 255 | 1.0 | 2.0 | 0.00 | 0.00 | 0.00 | 47 | 1015.1 |
| 20260503235304 | 55 | 255 | 0.0 | 3.0 | 0.00 | 0.00 | 0.00 | 49 | 1015.0 |
| 20260503234805 | 56 | 255 | 0.0 | 3.0 | 0.00 | 0.00 | 0.00 | 48 | 1014.9 |
| 20260503234304 | 56 | 255 | 0.0 | 3.0 | 0.00 | 0.00 | 0.00 | 48 | 1015.0 |
| 20260503233805 | 57 | 255 | 1.0 | 5.0 | 0.00 | 0.00 | 0.00 | 45 | 1014.8 |
| 20260503232306 | 58 | 259 | 1.0 | 10.0 | 0.00 | 0.00 | 0.00 | 41 | 1014.7 |
| 20260503231805 | 59 | 264 | 5.0 | 10.0 | 0.00 | 0.00 | 0.00 | 38 | 1014.8 |
| 20260503230305 | 60 | 299 | 2.0 | 12.0 | 0.00 | 0.00 | 0.00 | 38 | 1014.8 |
| 20260503225805 | 60 | 260 | 6.0 | 14.0 | 0.00 | 0.00 | 0.00 | 37 | 1014.8 |
| 20260503225305 | 60 | 231 | 7.0 | 14.0 | 0.00 | 0.00 | 0.00 | 36 | 1014.8 |
| 20260503224805 | 60 | 274 | 5.0 | 12.0 | 0.00 | 0.00 | 0.00 | 36 | 1014.9 |
| 20260503223804 | 61 | 242 | 3.0 | 8.0 | 0.00 | 0.00 | 0.00 | 36 | 1014.8 |
| 20260503223305 | 61 | 250 | 3.0 | 8.0 | 0.00 | 0.00 | 0.00 | 36 | 1014.8 |
| 20260503222806 | 61 | 288 | 3.0 | 7.0 | 0.00 | 0.00 | 0.00 | 39 | 1014.8 |
| 20260503222304 | 61 | 268 | 3.0 | 8.0 | 0.00 | 0.00 | 0.00 | 36 | 1014.8 |
| 20260503220804 | 61 | 269 | 5.0 | 15.0 | 0.00 | 0.00 | 0.00 | 34 | 1014.9 |
| 20260503220304 | 61 | 285 | 6.0 | 12.0 | 0.00 | 0.00 | 0.00 | 35 | 1014.9 |
| 20260503215304 | 61 | 287 | 4.0 | 16.0 | 0.00 | 0.00 | 0.00 | 34 | 1014.8 |
| 20260503214304 | 61 | 273 | 6.0 | 16.0 | 0.00 | 0.00 | 0.00 | 35 | 1014.9 |
| 20260503212806 | 62 | 306 | 3.0 | 16.0 | 0.00 | 0.00 | 0.00 | 33 | 1014.9 |
| 20260503212305 | 62 | 284 | 7.0 | 16.0 | 0.00 | 0.00 | 0.00 | 33 | 1014.8 |
| 20260503204805 | 62 | 283 | 7.0 | 16.0 | 0.00 | 0.00 | 0.00 | 35 | 1015.0 |
| 20260503203805 | 61 | 269 | 5.0 | 14.0 | 0.00 | 0.00 | 0.00 | 36 | 1015.0 |
| 20260503203304 | 61 | 288 | 3.0 | 15.0 | 0.00 | 0.00 | 0.00 | 37 | 1015.0 |
| 20260503195805 | 62 | 246 | 7.0 | 16.0 | 0.00 | 0.00 | 0.00 | 35 | 1015.3 |
| 20260503195305 | 61 | 322 | 5.0 | 20.0 | 0.00 | 0.00 | 0.00 | 37 | 1015.4 |
| 20260503194806 | 61 | 315 | 9.0 | 20.0 | 0.00 | 0.00 | 0.00 | 37 | 1015.5 |
| 20260503194305 | 61 | 277 | 4.0 | 16.0 | 0.00 | 0.00 | 0.00 | 36 | 1015.5 |
| 20260503193805 | 60 | 270 | 5.0 | 13.0 | 0.00 | 0.00 | 0.00 | 37 | 1015.6 |
| 20260503190805 | 60 | 248 | 6.0 | 16.0 | 0.00 | 0.00 | 0.00 | 40 | 1015.8 |
| 20260503190305 | 59 | 262 | 9.0 | 16.0 | 0.00 | 0.00 | 0.00 | 37 | 1015.9 |
| 20260503185804 | 60 | 285 | 7.0 | 12.0 | 0.00 | 0.00 | 0.00 | 39 | 1016.0 |
| 20260503185305 | 60 | 281 | 4.0 | 17.0 | 0.00 | 0.00 | 0.00 | 41 | 1016.0 |
| 20260503184806 | 60 | 263 | 6.0 | 17.0 | 0.00 | 0.00 | 0.00 | 38 | 1016.1 |
| 20260503184305 | 59 | 183 | 6.0 | 17.0 | 0.00 | 0.00 | 0.00 | 39 | 1016.1 |
| 20260503183806 | 59 | 270 | 6.0 | 12.0 | 0.00 | 0.00 | 0.00 | 38 | 1016.2 |
| 20260503182805 | 59 | 342 | 5.0 | 17.0 | 0.00 | 0.00 | 0.00 | 38 | 1016.4 |
| 20260503182305 | 59 | 329 | 6.0 | 13.0 | 0.00 | 0.00 | 0.00 | 41 | 1016.4 |
| 20260503180806 | 59 | 263 | 5.0 | 16.0 | 0.00 | 0.00 | 0.00 | 39 | 1016.4 |
| 20260503180305 | 58 | 263 | 9.0 | 20.0 | 0.00 | 0.00 | 0.00 | 38 | 1016.4 |
| 20260503175805 | 59 | 263 | 9.0 | 20.0 | 0.00 | 0.00 | 0.00 | 39 | 1016.5 |
| 20260503174804 | 57 | 252 | 5.0 | 18.0 | 0.00 | 0.00 | 0.00 | 40 | 1016.6 |
| 20260503174305 | 58 | 314 | 5.0 | 18.0 | 0.00 | 0.00 | 0.00 | 38 | 1016.7 |
| 20260503173804 | 59 | 291 | 9.0 | 18.0 | 0.00 | 0.00 | 0.00 | 38 | 1016.6 |
| 20260503173305 | 58 | 286 | 3.0 | 15.0 | 0.00 | 0.00 | 0.00 | 40 | 1016.4 |
| 20260503172805 | 58 | 309 | 6.0 | 20.0 | 0.00 | 0.00 | 0.00 | 41 | 1016.4 |
| 20260503171305 | 57 | 237 | 7.0 | 15.0 | 0.00 | 0.00 | 0.00 | 40 | 1016.7 |
| 20260503170304 | 58 | 286 | 4.0 | 13.0 | 0.00 | 0.00 | 0.00 | 39 | 1016.6 |
| 20260503140306 | 50 | 303 | 4.0 | 9.0 | 0.00 | 0.00 | 0.00 | 53 | 1017.6 |
| 20260503131305 | 47 | 299 | 3.0 | 15.0 | 0.00 | 0.00 | 0.00 | 58 | 1017.4 |
| 20260503130305 | 47 | 321 | 5.0 | 16.0 | 0.00 | 0.00 | 0.00 | 59 | 1017.3 |
| 20260503110805 | 42 | 267 | 6.0 | 14.0 | 0.00 | 0.00 | 0.00 | 71 | 1016.4 |
| 20260503110305 | 41 | 299 | 4.0 | 12.0 | 0.00 | 0.00 | 0.00 | 71 | 1016.3 |
| 20260503090304 | 41 | 268 | 2.0 | 12.0 | 0.00 | 0.00 | 0.00 | 71 | 1014.7 |
| 20260503080806 | 42 | 300 | 3.0 | 8.0 | 0.00 | 0.00 | 0.00 | 71 | 1014.4 |
| 20260503080305 | 42 | 277 | 3.0 | 10.0 | 0.00 | 0.00 | 0.00 | 71 | 1014.4 |
| 20260503072804 | 42 | 295 | 2.0 | 8.0 | 0.00 | 0.00 | 0.00 | 71 | 1014.0 |
| 20260503072305 | 43 | 291 | 3.0 | 9.0 | 0.00 | 0.00 | 0.00 | 71 | 1014.0 |
| 20260503071805 | 43 | 272 | 3.0 | 9.0 | 0.00 | 0.00 | 0.00 | 70 | 1014.0 |
| 20260503071304 | 43 | 310 | 3.0 | 8.0 | 0.00 | 0.00 | 0.00 | 70 | 1014.0 |
| 20260503051805 | 44 | 291 | 1.0 | 6.0 | 0.00 | 0.00 | 0.00 | 70 | 1014.0 |
| 20260503050304 | 45 | 240 | 1.0 | 6.0 | 0.00 | 0.00 | 0.00 | 67 | 1014.1 |
| 20260503045804 | 45 | 267 | 2.0 | 6.0 | 0.00 | 0.00 | 0.00 | 67 | 1014.1 |
| 20260503043804 | 46 | 270 | 3.0 | 10.0 | 0.00 | 0.00 | 0.00 | 65 | 1014.4 |
| 20260503043305 | 46 | 293 | 5.0 | 10.0 | 0.00 | 0.00 | 0.00 | 65 | 1014.3 |
| 20260503035804 | 47 | 289 | 2.0 | 9.0 | 0.00 | 0.00 | 0.00 | 64 | 1014.5 |
| 20260503034304 | 48 | 277 | 4.0 | 12.0 | 0.00 | 0.00 | 0.00 | 63 | 1014.7 |